Dewpoint
59 59 59 59 59 58 58 58 58 57 57 58 57 57 56 55 53 47 44 25 22 30 28 22 24 24 23 15 13 13 15 15 16 15 18 18 17 19 20 29 48 52 50 54 56
60 60 60 60 59 59 59 58 58 58 58 57 57 56 55 54 49 46 38 31 29 30 30 26 22 23 23 23 23 14 14 14 16 15 16 17 15 16 17 25 50 52 54 55 55
60 60 60 60 59 59 58 58 58 58 58 57 57 56 55 54 47 30 29 32 30 28 22 21 22 24 24 26 26 23 13 14 15 16 14 13 13 14 15 17 40 48 53 54 54
56 56 56 57 57 57 57 56 56 57 57 57 56 56 53 51 30 32 34 37 35 30 24 23 23 26 26 26 27 24 25 21 16 18 14 12 12 13 13 15 36 51 53 53 53
51 51 51 52 52 52 52 52 52 52 53 54 56 55 50 38 37 39 42 41 36 32 27 23 23 25 25 23 21 21 25 24 21 18 15 13 12 13 13 33 50 51 52 52 52
50 50 50 50 50 51 51 51 51 51 51 52 54 54 45 28 30 30 40 38 39 38 36 36 28 30 25 22 23 26 24 21 20 19 18 18 15 13 14 42 46 48 49 49 49
48 49 49 49 49 49 50 50 50 50 50 51 53 51 44 29 29 27 28 29 28 31 35 37 36 33 25 21 26 28 27 26 21 19 20 20 18 14 14 34 41 43 45 46 46
47 47 48 49 48 48 48 48 49 49 51 51 53 50 35 33 29 31 29 25 25 31 36 37 38 33 28 24 24 26 28 25 26 24 23 21 18 18 16 16 34 38 39 41 38
47 47 47 47 46 46 46 48 47 47 49 51 48 46 38 37 35 34 31 24 30 29 29 29 34 27 25 24 24 28 24 23 25 27 24 20 17 16 15 15 23 32 33 33 33
47 47 48 47 46 46 48 47 43 46 45 47 44 37 35 21 23 30 29 33 32 34 36 31 32 24 24 22 23 25 25 23 22 21 17 16 15 15 14 12 15 27 29 28 32
47 47 48 47 47 46 48 40 32 42 43 38 39 35 30 30 30 27 27 27 28 32 30 36 34 27 24 26 27 26 25 23 22 21 18 18 16 14 14 15 18 25 26 26 30
47 47 48 47 45 47 47 38 41 41 36 37 35 35 37 38 33 30 23 18 23 25 25 23 28 32 28 24 22 21 21 21 22 21 20 20 18 16 16 16 17 21 24 25 30
47 46 47 46 45 44 36 36 40 45 34 23 22 18 18 18 25 25 18 15 15 16 22 20 21 22 29 28 25 22 17 17 22 22 22 22 20 21 20 19 17 18 20 24 30
47 46 46 45 42 42 41 44 44 47 30 23 12 14 15 13 11 13 13 14 11 10 14 21 22 17 17 17 23 21 19 19 20 18 17 20 17 19 21 20 20 18 18 21 28
47 47 46 45 39 38 42 46 46 47 -13 8 23 26 26 14 20 27 24 18 16 14 12 13 17 22 20 17 17 16 18 17 19 16 15 15 15 18 19 16 14 16 18 19 30
48 47 46 41 43 42 44 45 47 31 13 12 23 22 20 27 25 26 33 34 26 24 18 14 16 16 22 23 21 18 17 18 17 17 14 15 17 14 15 14 14 14 18 27 33
48 48 46 42 37 40 42 44 30 23 7 1 8 16 22 22 25 24 25 30 24 21 17 18 17 16 16 19 22 17 16 16 15 16 14 17 16 16 15 17 19 20 31 33 33
47 47 46 44 42 42 41 36 22 8 3 5 4 6 5 16 20 25 28 25 29 30 24 19 19 16 15 16 20 19 17 16 14 13 12 15 13 12 19 21 20 26 32 33 33
47 46 45 44 45 43 37 26 15 10 6 7 9 6 5 3 10 9 9 22 28 33 31 32 27 31 27 23 20 18 17 18 15 16 16 16 16 15 16 21 21 31 34 34 32
43 42 40 44 45 42 32 22 21 15 11 8 7 9 13 16 14 8 7 13 17 28 35 33 26 30 29 30 26 25 20 16 27 21 17 18 18 16 22 24 25 32 34 34 33
43 38 40 42 45 39 28 24 20 21 18 15 14 14 14 20 22 21 16 18 25 30 30 27 29 23 27 32 29 27 25 29 32 32 24 20 19 27 27 27 28 34 35 35 34
39 30 41 44 34 33 30 30 25 20 17 16 17 17 18 17 18 21 18 21 27 26 23 28 29 25 25 28 31 32 31 33 28 27 30 25 22 28 31 32 31 33 35 35 35
35 35 39 41 27 29 30 29 28 26 25 21 19 18 19 20 22 21 20 27 26 25 26 23 23 19 16 25 27 28 32 32 30 32 26 25 24 30 33 35 34 35 36 39 36
34 28 34 37 35 30 28 26 24 24 23 23 22 20 18 18 21 24 20 26 29 26 25 24 23 19 16 16 12 12 19 19 24 21 20 23 23 22 23 30 33 36 34 35 38
33 29 33 27 29 31 32 26 25 24 23 22 20 19 18 16 21 18 19 26 28 27 28 21 16 19 20 12 9 7 5 4 6 11 15 14 17 20 21 22 31 31 31 34 38
29 29 33 31 28 30 32 28 26 24 23 21 20 21 26 24 19 22 28 24 24 29 29 28 21 15 13 14 12 9 8 7 7 6 5 5 8 21 12 9 9 16 21 28 36
35 35 32 27 27 28 26 27 26 28 26 23 25 27 26 25 29 31 31 29 28 27 27 28 25 23 18 17 18 15 14 13 14 15 15 13 13 13 12 13 15 18 18 26 35
Wind_Speed
9 9 10 10 12 14 15 18 18 18 19 22 25 27 30 31 34 12 10 2 1 9 11 14 16 18 12 8 15 11 6 17 23 12 7 13 10 9 8 16 12 8 10 19 30
9 9 10 12 11 12 14 16 18 20 19 21 24 27 30 31 13 18 4 4 3 6 10 11 16 20 12 17 11 8 13 20 18 13 9 12 17 6 2 13 10 19 23 27 28
8 8 10 11 12 12 13 15 17 18 19 20 22 25 31 26 8 2 5 6 6 5 5 9 16 17 16 19 20 10 17 21 18 14 6 7 15 15 9 7 14 23 25 26 24
6 7 6 9 10 12 14 14 16 18 17 18 20 24 34 5 8 3 8 8 8 6 5 9 11 13 13 15 20 13 21 22 18 15 6 4 6 14 5 9 19 31 29 26 26
8 8 9 10 10 12 14 16 15 16 17 17 18 22 11 7 13 14 10 12 6 6 12 13 16 15 14 12 18 16 19 18 16 15 12 9 9 12 20 7 28 31 29 27 23
6 9 11 12 13 13 15 17 18 17 17 15 15 16 4 17 10 17 13 11 9 11 15 16 13 16 9 12 16 14 19 22 15 20 18 18 15 10 16 20 24 26 25 24 23
6 9 10 11 12 12 14 16 18 20 17 16 11 6 7 31 11 22 24 16 17 16 15 18 12 11 9 14 15 15 18 21 24 20 24 22 22 17 14 18 24 23 23 24 23
6 7 10 12 13 15 17 19 19 20 18 17 6 4 12 10 17 18 20 21 20 16 15 17 13 13 9 10 18 18 14 15 24 24 30 20 26 22 17 17 25 25 24 25 22
7 10 10 12 15 18 20 24 25 21 17 12 4 6 15 12 10 20 21 19 17 21 21 19 16 7 10 14 15 13 16 20 26 27 21 23 16 22 18 7 20 26 23 23 21
7 9 11 13 16 19 23 28 24 5 8 8 7 6 12 10 6 7 8 15 7 13 12 14 5 8 11 16 18 12 15 19 18 13 8 5 7 10 10 11 8 25 25 21 25
7 9 11 14 17 19 14 9 3 1 5 10 9 8 16 10 22 5 8 11 10 13 15 13 15 24 23 21 22 25 26 27 20 19 12 11 14 16 13 8 19 28 28 27 28
7 8 10 14 16 17 10 4 7 6 14 18 26 28 32 27 24 30 20 15 10 22 17 19 28 24 24 25 26 26 24 24 15 16 17 21 24 13 16 15 20 29 26 28 23
7 8 11 13 18 11 6 8 12 13 8 12 23 21 21 23 33 29 19 19 22 23 20 27 16 20 27 30 27 28 21 20 17 13 20 17 22 14 14 17 18 26 29 29 31
7 8 10 16 8 8 1 15 14 8 7 8 13 9 17 16 23 22 21 25 24 29 19 24 17 28 29 27 28 32 16 18 16 17 20 8 30 16 11 20 21 29 29 29 30
9 9 9 4 9 6 8 14 12 3 8 7 4 1 4 11 1 4 7 15 24 27 16 41 19 23 26 22 18 24 17 21 19 16 14 20 14 11 11 23 26 22 27 33 32
10 10 5 10 3 7 10 12 4 2 12 6 6 6 3 9 12 2 0 2 3 6 24 40 22 18 9 17 14 10 4 9 10 7 19 14 10 36 19 23 27 26 14 26 35
12 10 6 5 4 14 14 5 4 9 7 6 11 6 14 12 9 12 13 7 6 5 14 22 32 31 17 16 21 8 2 3 11 13 24 6 13 26 16 16 11 13 23 31 34
12 11 8 10 8 12 5 1 12 11 23 21 25 29 18 12 3 11 8 14 8 10 13 9 10 21 20 29 14 18 10 11 11 15 15 8 10 17 3 11 19 19 25 27 26
4 5 8 10 13 10 4 11 14 14 11 17 21 21 19 17 14 13 11 8 10 11 5 9 8 19 23 13 22 20 17 12 19 23 11 9 18 23 20 10 14 26 25 24 25
5 4 12 10 15 11 10 17 15 18 19 23 23 19 15 19 20 18 15 4 6 3 12 8 12 6 12 16 4 6 11 18 2 6 13 14 15 10 11 11 17 22 29 26 23
4 5 5 20 9 10 15 15 18 25 20 10 17 17 18 16 18 22 8 13 12 7 5 2 4 12 6 5 9 7 4 1 3 7 9 10 6 12 13 12 7 19 17 20 21
4 9 6 8 18 5 15 9 13 24 18 19 19 20 18 21 22 17 17 8 9 8 4 6 3 11 8 7 10 1 5 2 4 2 5 5 8 18 19 24 9 15 13 21 20
7 4 9 3 16 23 15 19 16 20 22 12 15 19 21 18 15 16 15 2 5 3 4 7 4 8 13 0 3 4 5 4 4 1 3 3 6 23 18 17 14 15 15 18 12
2 5 6 9 11 16 27 25 25 20 26 24 23 23 23 18 19 9 11 6 6 7 6 7 2 6 12 13 11 10 8 10 7 5 7 9 21 19 18 5 7 14 17 22 28
5 7 5 7 14 16 17 9 22 26 22 22 22 27 24 21 17 16 18 5 3 6 6 7 10 13 21 24 18 20 19 17 15 14 12 22 18 21 17 15 19 13 19 23 25
5 6 5 13 17 15 18 17 26 27 20 21 24 17 17 23 10 10 8 4 3 6 4 9 13 11 17 20 21 21 20 24 18 15 20 20 24 16 18 22 22 14 18 20 28
2 2 3 10 11 15 22 28 31 29 26 23 16 7 13 13 8 9 6 7 7 2 4 8 8 11 17 10 11 12 22 15 16 13 16 20 25 24 23 21 25 23 20 16 30
Wind_Direction
314 320 320 332 333 336 340 336 338 339 342 339 339 339 337 335 326 334 293 217 342 314 314 321 331 330 338 260 262 269 265 272 267 292 317 3 11 2 33 67 53 12 141 146 143
305 309 316 322 326 329 336 334 333 330 338 339 338 336 333 334 319 300 219 214 250 316 341 330 319 314 313 295 298 231 228 255 262 301 0 359 350 330 66 106 80 77 84 122 141
319 317 326 325 324 324 330 329 327 326 331 336 336 334 329 329 311 244 182 238 278 297 279 290 284 290 293 295 291 281 254 263 279 304 26 11 332 326 217 200 174 154 143 144 154
16 2 1 336 337 336 327 321 322 322 328 333 337 335 324 301 298 206 199 234 258 288 304 299 293 313 309 299 295 312 294 273 280 306 298 293 303 308 281 241 164 149 149 155 166
357 347 342 335 335 334 325 322 321 319 322 329 333 336 345 315 256 280 217 232 251 261 267 284 299 299 284 314 322 308 308 317 328 330 321 288 268 272 295 105 132 140 154 164 171
343 331 332 329 329 331 323 317 312 308 311 317 326 333 302 276 255 281 223 249 235 273 292 294 279 297 294 290 290 286 308 312 314 302 298 292 271 251 280 131 138 151 160 165 175
342 332 329 329 328 325 315 308 304 301 299 299 319 320 269 256 272 295 301 280 281 272 266 274 285 320 305 308 296 305 310 300 288 280 273 264 268 250 237 149 157 160 165 172 182
329 328 325 325 326 321 316 305 296 292 290 287 308 284 253 266 270 268 271 277 270 270 246 271 285 285 268 276 291 294 290 274 270 259 257 236 244 245 234 203 169 170 177 177 175
328 324 328 326 328 321 315 304 292 286 277 262 281 200 269 291 240 250 241 252 257 253 242 245 250 233 285 261 277 254 255 262 269 261 242 227 226 216 236 209 192 178 180 176 159
313 317 322 327 324 321 318 299 279 322 264 238 248 297 257 266 255 312 241 228 271 299 278 213 229 222 245 230 234 245 245 255 259 294 294 225 214 212 223 231 231 180 177 173 164
307 313 320 325 322 323 340 336 354 337 231 215 204 234 294 274 315 303 281 263 254 260 268 221 216 227 239 236 241 246 256 265 277 290 319 289 273 249 235 241 184 177 181 185 179
297 310 316 316 317 317 311 282 25 328 292 266 268 258 260 271 283 278 289 289 278 234 240 257 242 224 237 252 256 257 263 271 268 290 293 287 279 252 228 234 215 192 192 190 155
286 303 309 315 316 310 225 286 3 23 272 250 241 247 244 237 249 255 257 263 260 266 238 240 239 234 233 243 254 262 270 279 262 289 293 295 282 269 262 253 239 211 197 191 165
261 281 303 323 316 320 316 355 349 5 288 269 225 258 231 231 271 252 233 239 251 255 262 259 255 248 258 260 242 256 242 279 274 257 263 256 277 251 271 279 261 244 208 189 172
251 266 293 339 301 333 6 347 338 354 288 280 56 89 81 189 19 43 220 240 254 256 247 250 276 272 270 275 282 280 237 253 270 279 302 271 265 269 244 268 275 253 229 198 162
239 248 284 308 238 281 343 328 340 130 248 280 137 175 185 232 250 251 353 326 320 295 236 257 266 268 271 301 310 340 330 307 292 274 268 260 232 274 257 255 256 267 236 154 143
241 232 217 283 248 329 323 338 181 218 268 238 218 185 195 236 237 233 238 220 223 228 245 258 252 258 263 286 289 263 352 284 256 234 251 235 235 236 273 300 292 187 135 132 137
243 229 228 233 273 304 318 241 221 238 233 297 306 312 304 298 231 213 228 269 244 293 301 242 282 227 230 227 222 232 193 211 232 241 257 306 251 253 166 65 52 70 123 122 125
211 229 237 237 248 262 235 213 218 236 261 286 295 285 290 285 274 268 267 238 204 187 228 328 277 336 318 283 212 240 224 227 253 266 273 261 284 294 302 73 56 104 111 112 122
163 217 244 224 224 233 206 225 238 247 271 291 286 293 309 317 315 309 288 284 299 160 182 189 280 280 315 351 301 222 219 233 142 225 246 250 255 235 78 48 48 107 122 117 118
172 230 257 216 212 211 209 222 239 257 273 293 286 303 306 292 304 318 330 346 28 109 221 257 241 280 332 271 285 304 195 82 154 202 219 248 292 111 107 103 74 103 110 119 131
211 241 270 190 213 224 219 212 234 257 270 271 281 288 295 282 278 294 310 320 18 12 318 359 207 282 230 273 311 258 313 64 249 276 165 194 218 75 73 50 62 82 123 135 131
240 247 270 193 222 224 227 230 243 256 265 271 268 275 283 276 282 259 286 41 83 22 0 355 314 309 306 311 344 32 66 291 327 191 281 279 220 16 63 30 40 41 26 40 59
224 255 225 199 237 257 223 223 233 241 252 251 263 275 276 272 266 268 256 220 186 183 158 112 268 254 273 305 317 288 212 240 182 232 270 255 287 303 311 279 186 182 229 196 192
218 251 257 233 235 230 248 239 226 246 246 260 256 246 254 266 260 243 269 138 187 219 224 208 240 230 248 280 284 289 288 281 264 258 251 275 250 266 277 271 212 208 237 213 182
217 222 273 280 267 232 228 234 248 254 240 250 248 256 254 263 249 288 353 3 66 354 327 315 263 242 265 275 285 290 287 284 295 287 285 287 282 264 276 289 287 257 231 216 181
125 301 300 275 295 273 243 243 239 238 248 261 276 226 250 246 121 146 175 291 300 312 238 266 224 235 257 271 306 287 262 276 283 284 273 270 269 281 274 269 269 268 259 237 155